Torna al catalogo

STARLINK-3331

AttivoComunicazioniVLEO
NORAD 50834·PAYLOAD·🇺🇸 United States

Lanciato Jan 6, 2022 da Cape Canaveral Space Force Station

Loading…

Prossimi Passaggi (prossime 24 ore)

TLE

AggiornatoSource: CelesTrak SupGP

Epoca: Sep 14, 2026, 21:06 UTC

1 50834C 22001AH  26257.87965278  .00041819  00000+0  12694-2 0  2572
2 50834  53.1599  36.2727 0001275  78.1765  55.2650 15.33517562    12

Traccia STARLINK-3331 in tempo reale con AllMySat

Download on the App Store